EDT,Max TemperatureF,Mean TemperatureF,Min TemperatureF,Max Dew PointF,MeanDew PointF,Min DewpointF,Max Humidity, Mean Humidity, Min Humidity, Max Sea Level PressureIn, Mean Sea Level PressureIn, Min Sea Level PressureIn, Max VisibilityMiles, Mean VisibilityMiles, Min VisibilityMiles, Max Wind SpeedMPH, Mean Wind SpeedMPH, Max Gust SpeedMPH,PrecipitationIn, CloudCover, Events, WindDirDegrees
2013-9-1,69,63,57,66,62,55,100,96,83,29.86,29.77,29.68,10,8,2,17,8,20,0.93,5,Thunderstorm,144
2013-9-2,57,54,51,55,52,50,100,94,82,29.89,29.81,29.73,10,8,2,21,15,28,0.03,8,,294
2013-9-3,71,61,51,57,52,46,100,74,43,29.95,29.91,29.88,10,10,10,17,11,23,0.00,1,,295
2013-9-4,62,54,46,59,49,39,100,76,45,30.14,30.02,29.87,10,10,10,17,7,25,0.00,3,,299
2013-9-5,62,52,42,46,42,36,100,70,37,30.32,30.25,30.14,10,10,10,14,5,20,0.00,1,,311
2013-9-6,69,60,50,63,56,45,100,87,64,30.21,30.10,29.95,10,10,5,15,6,24,0.53,3,,206
2013-9-7,71,66,59,66,63,55,100,93,73,30.05,29.91,29.86,10,8,0,14,4,18,0.44,7,Thunderstorm,1
2013-9-8,66,58,50,55,50,45,94,78,49,30.19,30.12,30.06,10,10,9,10,5,,0.00,1,,88
2013-9-9,64,58,51,63,56,48,100,90,77,30.06,29.93,29.75,10,10,7,15,7,,0.00,5,,135
2013-9-10,82,72,62,72,68,61,100,93,70,29.92,29.81,29.73,10,7,0,28,8,37,0.86,7,Thunderstorm,207
2013-9-11,75,68,62,66,64,61,100,91,69,29.94,29.92,29.89,10,9,0,15,5,16,0.63,7,,249
2013-9-12,62,55,48,63,53,43,100,86,72,30.07,29.94,29.87,10,10,9,24,11,31,0.01,7,,311
2013-9-13,53,46,39,43,39,36,100,76,54,30.19,30.14,30.07,10,10,10,14,9,20,0.00,2,,337
2013-9-14,64,50,37,54,46,37,100,82,56,30.13,30.06,29.96,10,10,9,16,4,22,0.00,1,,224
2013-9-15,60,52,44,59,53,39,100,93,81,30.24,30.03,29.94,10,10,3,14,6,18,0.06,7,,263
2013-9-16,53,45,37,39,35,27,93,70,35,30.43,30.37,30.24,10,10,10,12,5,,0.00,2,,353
2013-9-17,62,50,37,48,43,36,100,77,48,30.40,30.32,30.17,10,10,3,12,6,18,0.00,0,,164
2013-9-18,66,56,46,57,52,45,100,86,64,30.16,30.05,29.95,10,10,2,13,7,,0.00,5,,145
2013-9-19,75,67,59,66,61,55,100,82,69,29.95,29.88,29.78,10,10,9,13,7,17,0.00,7,,138
2013-9-20,69,62,55,66,64,54,100,96,88,29.77,29.67,29.62,10,9,3,13,9,22,0.84,7,,218
2013-9-21,55,50,44,54,45,39,100,83,62,29.88,29.76,29.69,10,10,5,23,12,32,0.07,7,,300
2013-9-22,53,44,35,43,38,36,100,80,54,30.11,30.03,29.89,10,10,10,10,5,,0.00,3,,336
2013-9-23,59,47,35,45,41,34,100,83,54,30.21,30.16,30.11,10,10,2,9,2,,0.00,1,,128
2013-9-24,64,53,42,50,45,41,100,80,49,30.17,30.11,30.04,10,9,0,9,5,,0.00,0,,141
2013-9-25,66,54,42,50,44,36,100,74,32,30.07,30.04,30.02,10,10,1,7,2,,0.00,0,,104
2013-9-26,71,56,42,52,44,34,100,68,25,30.15,30.12,30.05,10,10,3,10,3,,0.00,0,,137
2013-9-27,73,60,46,54,49,45,100,73,38,30.23,30.18,30.15,10,10,10,12,6,,0.00,0,,132
2013-9-28,71,60,50,57,54,50,100,82,53,30.17,30.06,29.85,10,10,10,25,11,30,0.00,1,,137
2013-9-29,64,58,51,59,51,45,100,80,52,30.01,29.94,29.82,10,10,3,17,9,28,0.25,3,,264
2013-9-30,66,54,42,54,47,39,100,79,37,30.01,29.94,29.85,10,8,0,13,4,17,0.00,1,,156